Miscellaneous Local Product
Issued by NWS Hastings, NE

Home | Current Version | Previous Version | Graphics & Text | Print | Product List | Glossary On
Versions: 1 2 3 4 5 6 7 8 9 10 11 12 13 14 15 16 17 18 19 20 21 22 23 24 25 26 27 28 29 30 31 32 33 34 35 36 37 38 39 40 41 42 43 44 45 46 47 48 49 50
000
AXUS43 KGID 211202
MISGRI

GID CWA HOURLY WEATHER ROUNDUP
NATIONAL WEATHER SERVICE HASTINGS NE
600 AM CST SUN JAN 21 2018

NOTE: "FAIR" INDICATES FEW OR NO CLOUDS BELOW 12,000 FEET WITH NO
SIGNIFICANT WEATHER AND/OR OBSTRUCTIONS TO VISIBILITY.

...SOUTH CENTRAL NEBRASKA...

CITY           SKY/WX    TMP DP  RH WIND       PRES   REMARKS
GRAND ISLAND   CLOUDY    33  31  92 N14       29.80S WCI  23
KEARNEY        CLOUDY    32  30  92 N15       29.79R WCI  22
HASTINGS       CLOUDY    33  31  92 NE12      29.77S WCI  24
ORD            CLOUDY    34  29  82 N14       29.83R WCI  25
YORK           CLOUDY    36  36 100 NE13      29.79F WCI  27
AURORA         CLOUDY    33  31  93 N12       29.78F WCI  24
LEXINGTON      CLOUDY    33  29  85 NE15      29.79F WCI  23
HOLDREGE       CLOUDY    32  32 100 N14       29.76F FOG     WCI  22
HEBRON         FOG       40  39  97 NE10      29.74F VSB 1/2 WCI  34

...NEBRASKA PANHANDLE...

CITY           SKY/WX    TMP DP  RH WIND       PRES   REMARKS
CHADRON        FOG       29  29 100 N7        29.96R VSB 3/4 WCI  22
ALLIANCE       LGT SNOW  28  28 100 N14       29.88S FOG     WCI  17
SCOTTSBLUFF    FLURRIES  29  27  92 NE15      29.89S WCI  18
SIDNEY         LGT SNOW  29  28  96 NE13      29.84S FOG     WCI  19

...WESTERN AND NORTH CENTRAL NEBRASKA...

CITY           SKY/WX    TMP DP  RH WIND       PRES   REMARKS
VALENTINE      CLOUDY    34  32  92 N12       29.92R WCI  25
AINSWORTH      CLOUDY    32  32  98 N17       29.89S WCI  21
ONEILL         MOCLDY    31  31 100 N9        29.88S WCI  23
BROKEN BOW     CLOUDY    34  29  82 NE13      29.82S WCI  25
IMPERIAL       CLOUDY    32  30  92 N17       29.80F WCI  21
NORTH PLATTE   CLOUDY    33  29  85 NE16      29.82R WCI  23
MCCOOK         CLOUDY    32  29  88 N17       29.76F WCI  21

...EASTERN NEBRASKA...

CITY           SKY/WX    TMP DP  RH WIND       PRES   REMARKS
NORFOLK        CLOUDY    46  30  53 NE13      29.84S
SO SIOUX CITY  CLOUDY    33  29  85 E7        29.89R WCI  27
TEKAMAH        CLOUDY    35  31  85 N12       29.85S WCI  27
COLUMBUS       CLOUDY    36  32  85 N8        29.83S WCI  30
ALBION         CLOUDY    33  31  91 NE15      29.83F WCI  23
OMAHA EPPLEY   CLOUDY    39  36  89 N9        29.83S WCI  33
OFFUTT AFB     CLOUDY    39  37  91 NE9       29.81R WCI  33
MILLARD        CLOUDY    42  38  87 NE3       29.81F
LINCOLN        CLOUDY    39  37  92 N10       29.79F FOG     WCI  32
NEBRASKA CITY  FOG       39  39 100 NE5       29.79S VSB 1/2
BEATRICE       FOG       41  41 100 NE9       29.76S VSB 1
FALLS CITY     FOG       42  41  96 NE5       29.77S VSB 1/4

...NORTHERN KANSAS...

CITY           SKY/WX    TMP DP  RH WIND       PRES   REMARKS
GOODLAND       CLOUDY    29  27  92 N14       29.74F WCI  18
HILL CITY      CLOUDY    35  35 100 N17       29.71F FOG     WCI  25
NORTON         CLOUDY    34  28  80 N16G22    29.71F FOG     WCI  23
PHILLIPSBURG   CLOUDY    36  36 100 N13       29.72F FOG     WCI  27
SMITH CENTER   CLOUDY    36  36 100 N15       29.71F FOG     WCI  26
BELOIT         FOG       37  37 100 CALM      29.69S VSB 1/2
HAYS           LGT RAIN  37  36  96 N10       29.70S VSB 1/4 WCI  30
RUSSELL        FOG       37  37 100 N8        29.67S VSB 1/4 WCI  31
CONCORDIA      FOG       37  37 100 NE7       29.69F VSB 1/4 WCI  32
SALINA         FOG       34  34 100 CALM      29.68S VSB 1/4
TOPEKA         CLOUDY    46  46 100 E9        29.74F FOG



USA.gov is the U.S. government's official web portal to all federal, state and local government web resources and services.